Regional Weather Roundup
Issued by NWS

Home | Current Version | Previous Version | Graphics & Text | Print | Product List | Glossary On
Versions: 1 2 3 4 5 6 7 8 9 10 11 12 13 14 15 16 17 18 19 20 21 22 23 24 25 26 27 28 29 30 31 32 33 34 35 36 37 38 39 40 41 42 43 44 45 46 47 48 49 50
000
ASUS45 KPSR 281800
RWRAZ

ARIZONA HOURLY REGIONAL WEATHER ROUNDUP
NATIONAL WEATHER SERVICE PHOENIX AZ
1100 AM MST TUE JUL 28 2015

NOTE: FAIR INDICATES FEW OR NO CLOUDS BELOW 12,000 FEET WITH NO
SIGNIFICANT WEATHER AND/OR OBSTRUCTIONS TO VISIBILITY.

AZZ001>003-036-281900-
NORTHWEST ARIZONA

CITY           SKY/WX    TMP DP  RH WIND       PRES   REMARKS
KINGMAN        SUNNY     92  30  11 SW13G21   30.05S
6HR MIN TEMP:  67; 6HR MAX TEMP:  93;

$$

AZZ004>008-015-016-018-281900-
NORTH CENTRAL ARIZONA

CITY           SKY/WX    TMP DP  RH WIND       PRES   REMARKS
GRAND CANYON   SUNNY     78  27  15 W6G22     30.28S
6HR MIN TEMP:  38; 6HR MAX TEMP:  79;

WILLIAMS       SUNNY     79  30  17 SW10      30.35R
PRESCOTT       SUNNY     83  38  20 CALM      30.17S
6HR MIN TEMP:  60; 6HR MAX TEMP:  85;

FLAGSTAFF      NOT AVBL
PAYSON         CLOUDY    81  50  34 VRB3      30.20S
PAGE           SUNNY     85  28  12 VRB5      30.11F
6HR MIN TEMP:  69; 6HR MAX TEMP:  86;

$$

AZZ009>014-017-281900-
NORTHEAST ARIZONA

CITY           SKY/WX    TMP DP  RH WIND       PRES   REMARKS
WINSLOW        NOT AVBL
SAINT JOHNS    MOSUNNY   84  45  25 MISG      30.21S
6HR MIN TEMP:  63; 6HR MAX TEMP:  85;

WINDOW ROCK    LGT RAIN  75  44  33 SW6G20    30.29R
6HR MIN TEMP:  58; 6HR MAX TEMP:  83; 6HR PCP:  0.01;

SHOW LOW       PTSUNNY   77  45  31 E12       30.28S HAZE
$$

AZZ023-281900-
GREATER PHOENIX AREA

CITY           SKY/WX    TMP DP  RH WIND       PRES   REMARKS
PHOENIX        PTSUNNY   96  56  26 VRB5      29.88S
6HR MIN TEMP:  88; 6HR MAX TEMP:  97;

GLENDALE       PTSUNNY   97  59  28 SW6       29.90S
DEER VALLEY    PTSUNNY   93  56  28 SW7       29.91S
6HR MIN TEMP:  87; 6HR MAX TEMP:  93;

SCOTTSDALE     PTSUNNY   94  54  25 CALM      29.93S
6HR MIN TEMP:  88; 6HR MAX TEMP:  94;

MESA-FALCON    PTSUNNY   97  55  24 VRB6      29.90F
MESA-GATEWAY   MOSUNNY   91  61  35 W3        29.93S
CHANDLER       PTSUNNY   97  55  24 VRB6      29.90S
$$

AZZ027-028-281900-
SOUTHWEST MARICOPA COUNTY AND PINAL COUNTY

CITY           SKY/WX    TMP DP  RH WIND       PRES   REMARKS
CASA GRANDE    MOSUNNY   97  59  28 CALM      29.90S
6HR MIN TEMP:  82; 6HR MAX TEMP:  97;

$$

AZZ503-504-507>509-281900-
SOUTHEAST ARIZONA

CITY           SKY/WX    TMP DP  RH WIND       PRES   REMARKS
TUCSON         SUNNY     94  57  28 MISG      29.99F
6HR MIN TEMP:  81; 6HR MAX TEMP:  96;

RYAN FIELD     SUNNY     93  63  36 CALM      29.98F
NOGALES        SUNNY     88  62  41 VRB5      30.08S
6HR MIN TEMP:  66; 6HR MAX TEMP:  88;

SAFFORD        MOSUNNY   91  54  28 VRB3      30.00S
6HR MIN TEMP:  76; 6HR MAX TEMP:  92;

$$

AZZ020-021-025-026-031-281900-
SOUTHWEST ARIZONA

CITY           SKY/WX    TMP DP  RH WIND       PRES   REMARKS
YUMA           MOSUNNY   97  68  38 S9        29.81S HX 102
6HR MIN TEMP:  81; 6HR MAX TEMP:  98;

$$

CAZ031-033-041-043-047-048-061-281900-
SOUTHERN CALIFORNIA

CITY           SKY/WX    TMP DP  RH WIND       PRES   REMARKS
DOWNTOWN L.A.  SUNNY     80  62  54 CALM      29.89F
6HR MIN TEMP:  68; 6HR MAX TEMP:  80;

L.A. AIRPORT   SUNNY     75  63  66 W10       29.91S
6HR MIN TEMP:  67; 6HR MAX TEMP:  76;

SAN DIEGO      MOSUNNY   74  61  63 VRB5      29.92S
6HR MIN TEMP:  67; 6HR MAX TEMP:  75;

BURBANK        SUNNY     79  60  52 SE5       29.91S
6HR MIN TEMP:  65; 6HR MAX TEMP:  79;

ONTARIO        SUNNY     79  60  52 S6        29.91F
6HR MIN TEMP:  64; 6HR MAX TEMP:  80;

RIVERSIDE      SUNNY     79  60  52 SW5       29.91F
6HR MIN TEMP:  64; 6HR MAX TEMP:  79;

PALM SPRINGS   SUNNY     96  51  21 SE12      29.85S
6HR MIN TEMP:  74; 6HR MAX TEMP:  96;

EL CENTRO NAS  MOSUNNY   97  56  25 VRB3      29.82S
6HR MIN TEMP:  70; 6HR MAX TEMP:  97;

IMPERIAL       SUNNY     95  60  31 E7        29.80S
6HR MIN TEMP:  72; 6HR MAX TEMP:  95;

BLYTHE         SUNNY     96  57  27 S8        29.83F
6HR MIN TEMP:  77; 6HR MAX TEMP:  97;

$$

NVZ020-UTZ003-281900-
SOUTHERN NEVADA-UTAH

CITY           SKY/WX    TMP DP  RH WIND       PRES   REMARKS
LAS VEGAS      NOT AVBL
SALT LAKE CITY SUNNY     70  25  18 NW12      30.27F
6HR MIN TEMP:  54; 6HR MAX TEMP:  70;

$$

NMZ009-TXZ055-281900-
NEW MEXICO-WEST TEXAS

CITY           SKY/WX    TMP DP  RH WIND       PRES   REMARKS
ALBUQUERQUE    MOSUNNY   86  45  23 NW7       30.16F
6HR MIN TEMP:  71; 6HR MAX TEMP:  87;

EL PASO        MOSUNNY   90  55  30 CALM      30.05S
6HR MIN TEMP:  78; 6HR MAX TEMP:  91;

$$


........................KEY........................
SKY/WX - SKY CONDITION/WEATHER
TMP    - TEMPERATURE IN FAHRENHEIT
DP     - DEW POINT IN FAHRENHEIT
RH     - RELATIVE HUMIDITY IN PERCENT
WIND   - DIRECTION AND SPEED IN MILES PER HOUR (MPH)
VRB    - VARIABLE WIND DIRECTION
PRES   - MEAN SEA LEVEL PRESSURE IN INCHES OF MERCURY
         F - FALLING PRESSURE   R - RISING PRESSURE
         S - STEADY PRESSURE
VSB    - VISIBILITY IN MILES
HX     - HEAT INDEX IN FAHRENHEIT
WCI    - WIND CHILL INDEX IN FAHRENHEIT
TC     - TEMPERATURE IN CELSIUS WHICH IS ALSO KNOWN AS
         TEMPERATURE IN CENTIGRADE
AFB    - AIR FORCE BASE
         LUKE AFB IS LUKE AIR FORCE BASE
         DAVIS-MONTHAN IS DAVIS-MONTHAN AIR FORCE BASE
NAS    - NAVAL AIR STATION
         EL CENTRO NAS IS EL CENTRO NAVAL AIR STATION
N/A    - NOT AVAILABLE




USA.gov is the U.S. government's official web portal to all federal, state and local government web resources and services.